Regional Weather Roundup
Issued by NWS Green Bay, WI

Home | Current Version | Previous Version | Graphics & Text | Print | Product List | Glossary Off
Versions: 1 2 3 4 5 6 7 8 9 10 11 12 13 14 15 16 17 18 19 20 21 22 23 24 25 26 27 28 29 30 31 32 33 34 35 36 37 38 39 40 41 42 43 44 45 46 47 48 49 50

000
ASUS43 KGRB 262210
RWRGRB

NORTH-CENTRAL AND NORTHEAST WISCONSIN REGIONAL WEATHER ROUNDUP
NATIONAL WEATHER SERVICE GREEN BAY WI
400 PM CST FRI DEC 26 2014

WIZ005-009-010>012-018-019-262300-
NORTH CENTRAL WISCONSIN

CITY           SKY/WX    TMP DP  RH WIND       PRES   REMARKS
IRONWOOD       CLOUDY    30  28  93 N6        30.00R
MANITOWISH WTR CLOUDY    30  30 100 N5        29.98S
ARBOR VITAE    CLOUDY    32  30  92 N3        29.98S
EAGLE RIVER    MIX PCPN  30  30  99 N3        29.97S
LAND O LAKES   CLOUDY    31  30  96 N3        29.98S FOG
RHINELANDER    CLOUDY    30  28  92 NE5       29.98R
PHILLIPS       CLOUDY    31  28  91 N7        29.98R
ANTIGO         CLOUDY    32  32 100 NE6       29.97R FOG
TOMAHAWK       CLOUDY    31  29  92 CALM      29.99R FOG
MERRILL        CLOUDY    33  32  96 N3        29.98R FOG
$$

WIZ013-073-262300-
NORTHEAST WISCONSIN

CITY           SKY/WX    TMP DP  RH WIND       PRES   REMARKS
IRON MOUNTAIN  CLOUDY    33  30  88 N3        29.99R
MARINETTE      CLOUDY    36  32  87 E8        29.99R
OCONTO         CLOUDY    35  34  99 CALM      30.00R
$$

WIZ017-030-035>037-045-262300-
CENTRAL WISCONSIN

CITY           SKY/WX    TMP DP  RH WIND       PRES   REMARKS
MEDFORD        CLOUDY    32  30  92 NE7       29.97R FOG
WAUSAU         CLOUDY    34  31  88 N3        29.96R
MOSINEE        CLOUDY    34  34 100 E3        29.98R
MARSHFIELD     CLOUDY    35  30  82 NE6       29.97R
WISC RAPIDS    PTCLDY    37  30  75 NE8       29.98R
STEVENS POINT  CLOUDY    31  31  99 NE6       29.98R FOG
WAUPACA        CLOUDY    34  33  96 CALM      29.99R FOG
SHAWANO        CLOUDY    34  33  96 N3        29.99S FOG
CLINTONVILLE   CLOUDY    32  32 100 N3        29.99R FOG
$$

WIZ038-039-048-051-262300-
FOX VALLEY

CITY           SKY/WX    TMP DP  RH WIND       PRES   REMARKS
NWS GREEN BAY  CLOUDY    37  34  89 N7        29.99R
APPLETON       MOCLDY    37  32  81 N10       29.98R
OSHKOSH        MOCLDY    42  35  76 CALM      29.97R
FOND DU LAC    MOCLDY    42  35  76 S7        29.96R
$$

WIZ022-050-052-262300-
EAST CENTRAL WISCONSIN

CITY           SKY/WX    TMP DP  RH WIND       PRES   REMARKS
STURGEON BAY   CLOUDY    36  30  80 N6        30.00S
MANITOWOC      MOCLDY    40  37  89 CALM      29.98R
SHEBOYGAN      MOCLDY    41  35  79 S7        29.98R
$$

LMZ563-521-522-541>543-262300-
LAKESHORE

STATION/POSITION TIME  TEMP    WIND        PRES    VSBY  WAVE
                       AIR SEA DIR/SP/G                  HT/PER
                 (UTC) (F)     (DEG/KT/KT) (MB)    (MI)  (FT/S)
SHEBOYGAN LKSHOR 2200   40 40  170/ 10/ 10 1015.8R
KEWAUNEE LKSHORE 2200   38     180/  8/  9 1014.2S
ALGOMA MARINA    2200             CALM       N/A
NORTHPORT PIER   2200   35     360/  3/  8 1015.9R
SISTER BAY LKSHO 2200           10/  8/ 10   N/A
STURGEON BAY CG  2200   37                   N/A
CHAMBERS ISLAND  2200   35      20/  7/  9 1015.9S
MENOMINEE LKSHOR 2200   34      40/ 10/ 11 1016.3S
$$



USA.gov is the U.S. government's official web portal to all federal, state and local government web resources and services.